| time (UTC) | temp F | wind direction | speed knots | gust knots | rain 1hr in | rain 24hr in | rain mn in | humidity % | barometer mb |
| 20260507130511 | 56 | 200 | 0.0 | 7.0 | 0.00 | 0.08 | 0.03 | 85 | 1012.8 |
| 20260507123510 | 57 | 76 | 0.9 | 3.5 | 0.01 | 0.08 | 0.03 | 91 | 1012.5 |
| 20260507120510 | 57 | 96 | 0.0 | 2.6 | 0.02 | 0.08 | 0.03 | 92 | 1012.3 |
| 20260507113510 | 57 | 187 | 0.0 | 4.3 | 0.01 | 0.07 | 0.02 | 90 | 1012.5 |
| 20260507110510 | 57 | 269 | 0.0 | 6.1 | 0.00 | 0.06 | 0.01 | 90 | 1012.1 |
| 20260507103510 | 58 | 51 | 0.0 | 9.6 | 0.01 | 0.06 | 0.01 | 91 | 1011.6 |
| 20260507100509 | 59 | 105 | 0.0 | 5.2 | 0.01 | 0.06 | 0.01 | 91 | 1011.7 |
| 20260507093509 | 61 | 133 | 0.0 | 3.5 | 0.00 | 0.05 | 0.00 | 89 | 1011.4 |
| 20260507090509 | 62 | 198 | 0.9 | 5.2 | 0.00 | 0.05 | 0.00 | 90 | 1010.8 |
| 20260507083508 | 65 | 48 | 0.0 | 5.2 | 0.00 | 0.05 | 0.00 | 91 | 1010.6 |
| 20260507070508 | 66 | 278 | 0.0 | 0.9 | 0.00 | 0.05 | 0.00 | 90 | 1009.5 |
| 20260507063508 | 67 | 263 | 0.0 | 2.6 | 0.00 | 0.05 | 0.00 | 88 | 1009.0 |
| 20260507060507 | 68 | 253 | 0.0 | 0.9 | 0.00 | 0.05 | 0.00 | 87 | 1009.5 |
| 20260507050507 | 68 | 253 | 0.0 | 0.9 | 0.00 | 0.05 | 0.00 | 86 | 1010.3 |
| 20260507043507 | 68 | 252 | 0.0 | 0.0 | 0.00 | 0.05 | 0.00 | 86 | 1010.5 |
| 20260507040506 | 68 | 253 | 0.0 | 1.7 | 0.00 | 0.05 | 0.00 | 87 | 1010.6 |
| 20260507033506 | 67 | 65 | 0.0 | 0.9 | 0.00 | 0.05 | 0.05 | 87 | 1010.3 |
| 20260507023506 | 66 | 55 | 0.0 | 2.6 | 0.00 | 0.05 | 0.05 | 89 | 1010.6 |
| 20260507020506 | 65 | 263 | 0.0 | 0.9 | 0.00 | 0.05 | 0.05 | 89 | 1010.5 |
| 20260507013506 | 66 | 263 | 0.0 | 0.0 | 0.00 | 0.05 | 0.05 | 89 | 1010.7 |
| 20260507010506 | 66 | 263 | 0.0 | 0.0 | 0.00 | 0.05 | 0.05 | 88 | 1010.8 |
| 20260507003505 | 66 | 263 | 0.0 | 0.0 | 0.00 | 0.05 | 0.05 | 87 | 1010.7 |
| 20260507000505 | 69 | 263 | 0.0 | 0.0 | 0.00 | 0.05 | 0.05 | 83 | 1010.7 |
| 20260506233505 | 71 | 264 | 0.0 | 0.9 | 0.00 | 0.05 | 0.05 | 79 | 1010.5 |
| 20260506230505 | 72 | 264 | 0.0 | 0.9 | 0.00 | 0.05 | 0.05 | 77 | 1010.2 |
| 20260506223505 | 72 | 261 | 0.0 | 0.9 | 0.00 | 0.05 | 0.05 | 76 | 1010.4 |
| 20260506220504 | 74 | 250 | 0.0 | 3.5 | 0.00 | 0.05 | 0.05 | 75 | 1010.6 |
| 20260506213504 | 74 | 218 | 0.0 | 0.9 | 0.00 | 0.05 | 0.05 | 76 | 1010.5 |
| 20260506210504 | 72 | 218 | 0.0 | 0.9 | 0.00 | 0.05 | 0.05 | 80 | 1010.3 |
| 20260506203504 | 72 | 217 | 0.0 | 2.6 | 0.00 | 0.05 | 0.05 | 79 | 1010.0 |
| 20260506200504 | 71 | 4 | 0.0 | 0.9 | 0.00 | 0.05 | 0.05 | 80 | 1010.4 |
| 20260506193503 | 70 | 70 | 0.0 | 4.3 | 0.00 | 0.05 | 0.05 | 80 | 1010.7 |
| 20260506190503 | 69 | 252 | 0.0 | 7.0 | 0.01 | 0.05 | 0.05 | 80 | 1011.2 |
| 20260506183503 | 69 | 355 | 0.0 | 2.6 | 0.01 | 0.05 | 0.05 | 83 | 1011.4 |
| 20260506180503 | 68 | 176 | 0.0 | 3.5 | 0.00 | 0.04 | 0.04 | 83 | 1012.0 |
| 20260506170502 | 66 | 6 | 0.0 | 7.0 | 0.00 | 0.04 | 0.04 | 89 | 1012.1 |
| 20260506163502 | 65 | 68 | 0.9 | 2.6 | 0.03 | 0.04 | 0.04 | 88 | 1012.4 |
| 20260506160502 | 65 | 346 | 0.0 | 0.9 | 0.04 | 0.04 | 0.04 | 89 | 1013.0 |
| 20260506150502 | 70 | 241 | 0.0 | 6.1 | 0.00 | 0.00 | 0.00 | 75 | 1014.0 |
| 20260506143501 | 68 | 44 | 0.9 | 4.3 | 0.00 | 0.00 | 0.00 | 76 | 1013.4 |
| 20260506140501 | 68 | 216 | 0.0 | 7.0 | 0.00 | 0.00 | 0.00 | 75 | 1013.6 |
| 20260506133501 | 69 | 285 | 0.0 | 5.2 | 0.00 | 0.00 | 0.00 | 74 | 1013.4 |